Temperature
13 13 13 13 14 14 14 14 14 14 14 14 14 14 14 14 14 15 15 14 15 15 14 14 14 14 14 14 13 13 13 13 13 12 12 12 12 13 13 13 12 12 12
13 13 13 13 13 13 13 13 14 14 13 13 14 14 14 14 14 14 14 14 14 14 14 14 14 14 13 13 13 13 13 13 13 12 12 12 12 12 12 12 12 12 11
12 13 13 13 13 13 13 13 13 14 13 13 13 13 13 13 14 14 14 14 14 14 14 14 14 13 13 13 13 13 13 13 12 12 12 12 12 11 11 12 11 11 11
12 12 12 13 13 13 13 13 13 13 13 13 13 13 13 13 13 13 14 14 14 14 14 14 13 13 13 13 13 13 13 12 12 12 12 11 11 11 10 10 11 10 10
11 12 12 12 12 13 13 13 13 13 13 13 13 13 13 13 13 13 13 13 13 13 13 13 13 13 13 13 13 13 12 12 12 12 12 11 11 10 10 10 10 10 9
11 11 11 12 12 12 13 13 13 13 13 13 13 13 12 12 12 12 13 13 13 13 13 13 13 13 13 13 12 12 12 12 12 11 11 11 11 10 10 9 9 9 9
10 10 11 11 12 12 12 12 12 13 13 13 13 12 12 12 12 12 12 12 12 12 13 13 13 13 12 12 12 12 12 12 11 11 11 11 10 10 10 9 8 8 8
9 10 10 11 11 11 12 12 12 12 12 12 12 12 12 12 12 12 12 12 12 12 12 12 12 12 12 12 11 11 11 11 11 11 11 10 10 10 9 8 7 7 7
9 9 10 10 10 11 11 11 11 12 12 12 12 12 12 12 12 12 12 12 12 12 12 12 12 12 11 11 11 11 11 11 11 11 10 10 10 9 9 8 7 6 6
8 9 9 9 10 10 10 11 11 11 11 11 11 11 11 11 11 11 11 11 11 11 11 11 11 11 11 11 11 10 10 10 10 10 10 9 9 9 8 8 7 6 5
8 8 8 9 9 9 10 10 10 10 11 11 11 11 11 11 11 11 11 11 11 11 11 11 10 10 10 10 10 10 10 10 10 9 9 9 8 8 8 7 6 6 5
7 8 8 8 8 9 9 9 9 9 10 10 10 10 10 10 10 10 10 10 10 10 10 10 10 10 10 10 10 9 9 9 9 9 8 8 8 7 7 6 6 5 5
7 7 7 7 7 8 8 8 9 9 9 9 9 10 10 10 10 10 10 10 10 9 9 9 9 9 9 9 9 9 9 9 8 8 8 7 7 6 6 5 5 4 4
6 6 6 6 7 7 7 7 8 8 8 8 9 9 9 9 9 9 9 9 9 9 9 9 9 8 8 8 8 8 8 8 7 7 7 7 6 5 5 4 4 4 3
6 5 5 6 6 6 7 7 7 7 7 8 8 8 8 8 8 8 8 8 8 8 8 8 8 8 8 8 8 7 7 7 7 6 6 5 5 5 4 4 3 3 3
5 5 5 5 5 5 6 6 6 7 7 7 7 7 7 7 7 7 7 7 7 7 7 7 7 7 7 7 7 7 7 6 6 5 5 5 4 4 3 3 3 2 2
4 4 4 4 4 4 5 5 6 6 6 6 7 7 7 7 7 7 7 7 6 6 6 6 6 6 6 6 6 6 6 5 5 5 4 4 4 3 3 2 2 2 2
4 4 4 4 4 4 4 5 5 5 5 6 6 6 6 6 6 6 6 6 6 6 6 6 5 6 6 5 5 5 5 5 4 4 4 3 3 3 2 2 2 1 1
3 3 3 3 4 4 4 4 4 5 5 5 5 5 5 5 5 5 5 5 5 5 5 5 5 5 5 5 5 5 4 4 4 3 3 3 2 2 2 1 1 1 1
3 3 3 3 3 3 3 4 4 4 4 4 4 4 4 4 4 4 4 4 4 4 4 4 4 4 4 4 4 4 4 3 3 3 2 2 1 1 1 1 0 0 0
2 2 2 3 3 3 3 3 3 3 3 3 4 4 4 4 4 4 4 4 3 4 4 4 4 4 4 3 3 3 3 3 2 2 2 1 1 1 0 0 -0 -0 -1
2 2 2 2 2 3 3 3 3 3 3 3 3 3 3 3 3 3 3 3 3 3 3 3 3 3 3 3 3 3 2 2 2 1 1 1 0 -0 -0 -1 -1 -1 -1
2 2 2 2 2 2 2 2 2 2 2 2 3 3 3 3 3 3 3 2 2 2 2 2 2 2 3 2 2 2 2 1 1 1 0 0 -0 -1 -1 -1 -2 -2 -2
1 1 1 1 2 2 2 2 2 2 2 2 2 2 2 2 2 2 2 2 2 2 2 2 2 2 2 2 2 2 1 1 0 0 -0 -1 -1 -1 -2 -2 -2 -2 -2
1 1 1 1 1 1 1 1 1 1 2 2 2 2 2 1 1 1 1 1 1 1 2 2 2 2 2 2 2 1 1 0 -0 -1 -1 -1 -2 -2 -2 -2 -3 -2 -3
1 1 1 1 1 1 1 1 1 1 1 1 1 1 1 1 1 1 1 1 1 1 1 1 1 1 1 1 1 0 -0 -0 -1 -1 -1 -2 -2 -2 -2 -2 -3 -3 -3
Wind_Speed
3 3 4 4 4 5 5 6 7 7 6 6 7 7 7 7 7 7 10 12 12 12 11 8 8 8 8 9 9 8 8 6 5 4 4 4 4 4 3 2 2 2 1
3 3 4 5 5 5 6 6 7 7 8 7 7 6 6 6 7 7 9 12 12 12 10 10 8 8 8 9 9 8 6 5 5 5 4 4 4 4 2 2 2 1 1
3 3 4 4 4 4 5 5 6 7 8 8 6 5 5 4 6 8 8 9 11 12 11 11 9 8 8 8 9 9 9 7 6 6 5 4 5 2 3 3 3 2 2
1 2 2 2 2 3 3 4 5 6 7 8 8 9 8 8 8 8 7 8 10 10 10 10 10 9 8 8 8 8 8 8 6 5 6 6 4 4 3 3 4 3 3
1 2 2 1 1 1 2 3 4 5 7 7 9 10 9 8 6 6 8 8 7 8 9 10 9 9 8 9 9 8 9 7 7 6 5 5 5 6 6 5 4 4 4
3 2 2 1 0 1 1 2 3 4 6 7 8 10 11 10 9 9 8 7 6 6 9 9 9 8 8 9 9 9 9 8 8 7 6 5 4 5 6 7 5 4 3
5 4 4 3 2 2 2 1 2 4 5 6 8 9 10 11 11 11 10 9 7 7 9 9 9 8 8 8 8 8 8 8 8 7 6 5 5 4 5 6 5 4 2
7 6 6 4 3 3 2 2 3 4 5 5 6 7 9 8 8 10 9 10 9 8 9 9 8 9 9 8 8 7 7 6 7 6 5 4 4 4 4 4 4 4 4
8 7 6 6 5 4 3 3 3 3 4 5 5 6 7 7 7 7 8 8 7 7 9 9 9 9 8 8 8 6 6 6 6 6 5 4 3 3 3 3 4 5 5
8 7 7 7 6 5 5 4 3 3 3 4 4 4 5 5 5 6 7 7 8 8 9 9 9 9 8 8 7 6 5 6 5 4 5 4 3 3 3 3 3 4 5
8 7 7 7 7 6 5 5 4 4 3 3 3 3 3 3 4 5 6 7 7 8 9 9 9 8 8 8 8 7 7 7 6 5 5 5 4 3 3 3 3 4 4
7 7 7 7 7 7 6 6 5 4 4 3 3 3 3 3 4 5 6 6 7 7 8 9 8 8 8 8 8 8 8 7 7 7 6 5 4 4 3 3 3 3 4
8 7 8 8 8 8 7 7 6 6 5 4 4 3 3 3 4 4 5 5 6 6 7 8 9 8 8 8 7 8 7 7 7 7 7 6 6 5 4 3 3 3 2
8 8 8 8 8 8 8 7 7 6 5 4 4 4 4 3 3 3 4 4 5 6 6 7 7 8 8 7 7 7 7 6 5 5 5 5 5 5 4 4 4 3 3
8 8 9 9 9 9 9 8 8 7 6 5 4 4 4 3 3 3 4 4 5 5 6 7 7 7 6 6 8 7 7 7 6 5 4 4 4 3 3 3 4 4 4
8 9 9 10 10 10 10 9 9 8 7 5 5 4 3 3 3 3 4 4 5 5 6 6 7 7 5 9 10 8 7 7 7 6 5 4 5 5 4 3 3 3 4
8 9 9 9 9 10 10 10 9 8 7 6 5 4 3 3 3 3 4 5 5 5 6 6 6 7 8 11 11 10 7 7 6 6 6 4 4 5 4 5 4 3 1
9 9 9 10 10 9 9 9 8 8 7 6 6 4 4 3 3 3 4 5 5 5 5 6 6 7 8 11 11 11 7 6 6 6 6 5 5 5 5 5 4 3 2
8 9 9 9 9 9 9 9 8 7 7 6 6 5 4 4 3 4 4 4 5 5 5 6 7 7 8 11 11 10 6 6 6 5 5 6 6 7 7 6 5 4 3
8 8 8 8 8 8 8 8 8 7 7 7 7 6 4 4 4 4 4 4 4 5 5 5 6 7 7 11 11 11 6 6 5 5 5 7 7 9 9 6 6 5 4
8 8 8 7 7 7 7 7 7 7 8 7 6 5 4 4 3 3 3 4 4 4 4 5 5 6 7 10 12 11 6 6 6 5 5 6 9 10 9 7 5 5 5
7 7 7 7 7 7 7 7 7 7 7 6 5 4 3 2 2 3 3 4 5 5 5 5 5 4 5 7 10 12 10 8 6 6 5 6 10 10 10 7 6 8 6
7 7 7 7 7 7 7 7 7 7 6 6 5 4 3 2 2 3 4 4 5 5 5 5 5 4 4 6 10 11 11 11 6 5 7 8 9 9 8 9 9 8 5
6 6 6 7 7 8 7 7 7 6 6 5 5 4 2 2 2 2 3 4 5 5 5 5 5 4 5 5 6 6 7 9 7 5 7 9 9 7 6 7 7 6 5
6 5 6 6 8 8 7 7 6 6 5 5 4 4 3 2 2 2 3 4 5 5 5 5 5 6 6 7 10 8 6 7 6 6 5 5 6 6 6 6 6 6 6
5 5 6 6 7 7 7 7 6 6 5 4 4 3 2 2 1 1 1 2 4 5 6 5 5 5 5 7 10 11 10 11 12 8 6 6 7 7 7 7 7 7 7
Wind_Direction
235 209 193 188 188 187 188 192 193 198 202 200 202 202 203 203 204 207 211 208 206 205 207 210 211 210 215 216 215 214 214 214 207 215 234 237 240 244 244 239 228 205 197
207 204 192 179 190 192 194 202 200 199 204 209 208 212 208 209 210 210 213 210 207 205 205 207 208 210 215 216 213 210 213 207 199 213 227 239 223 208 208 209 210 215 186
206 185 178 177 187 197 195 210 210 212 215 215 209 207 206 209 211 214 215 214 210 207 205 207 209 210 213 216 212 210 210 208 207 219 226 237 240 206 191 200 205 205 204
179 158 132 130 167 211 200 210 215 218 218 213 213 211 214 216 219 216 215 211 207 209 208 209 210 209 210 213 210 208 211 212 208 213 230 247 265 239 226 201 201 206 216
100 115 113 127 150 211 210 216 226 223 221 215 218 218 224 224 220 218 219 214 206 208 207 207 209 209 207 208 205 202 205 211 213 209 210 222 234 242 248 246 218 214 217
50 70 79 83 9 352 284 246 241 240 231 224 229 224 222 221 217 219 222 221 215 212 209 205 205 206 204 204 203 201 202 204 211 212 213 212 218 221 230 243 245 240 215
38 35 38 28 359 348 341 273 241 243 236 228 228 232 229 224 220 219 218 217 217 214 210 203 201 201 199 196 195 197 199 201 206 210 213 218 226 231 234 243 250 248 233
30 25 21 17 3 347 329 293 254 243 238 234 235 235 236 232 228 224 222 219 217 211 204 202 199 196 192 188 189 194 192 192 197 201 203 206 210 221 230 234 237 246 236
22 18 14 13 6 347 331 310 276 262 254 245 240 236 235 231 227 226 226 223 215 206 200 195 192 188 183 180 178 185 182 180 187 189 190 195 194 203 218 226 230 236 242
17 15 10 5 1 353 343 340 326 293 269 259 257 252 246 237 222 219 218 217 208 199 194 189 186 182 176 172 171 172 170 173 178 179 186 189 190 190 197 211 221 235 245
7 7 4 2 359 356 356 356 349 335 315 290 275 263 250 239 226 221 219 213 203 194 190 184 180 178 177 173 170 170 171 177 173 174 178 178 176 184 190 197 212 224 232
2 3 4 3 1 358 358 355 349 340 329 315 294 277 255 232 227 223 215 204 197 189 183 177 174 173 175 175 170 168 174 177 175 173 173 173 173 184 190 195 205 214 220
1 0 1 2 360 355 352 348 345 339 331 323 309 291 264 235 223 222 212 197 187 179 176 171 171 171 172 171 171 171 173 178 177 176 178 176 179 186 186 191 196 200 207
359 358 356 355 352 349 349 346 342 337 329 320 308 291 276 254 235 216 203 191 179 171 170 169 167 166 168 165 161 163 165 167 165 168 170 173 183 186 184 187 190 190 194
355 355 350 347 345 345 346 344 339 336 327 316 304 294 292 274 237 207 191 181 174 167 164 163 161 160 160 162 161 161 162 160 155 152 158 164 161 163 182 188 186 190 196
345 345 344 342 341 340 341 338 337 333 322 308 298 292 285 270 232 202 183 174 173 167 161 165 162 160 163 161 163 159 157 158 161 161 162 158 160 166 172 175 183 205 208
335 336 337 336 333 332 332 331 328 326 319 310 303 293 276 258 233 202 185 179 175 169 166 166 167 168 164 165 166 163 160 162 168 170 168 165 167 172 169 161 159 169 202
328 328 329 329 327 325 326 325 323 322 320 314 309 301 285 264 232 205 195 190 181 177 174 171 171 168 168 168 168 163 161 163 168 172 174 172 175 177 172 167 163 157 149
320 319 320 319 319 321 325 324 323 323 320 316 312 302 286 264 237 217 204 198 188 181 179 176 174 173 171 172 171 168 160 164 167 169 178 180 185 175 176 176 170 165 146
319 320 320 318 317 320 324 321 320 321 321 318 311 303 287 265 248 230 212 202 192 187 177 177 180 178 178 178 180 179 170 171 170 174 182 193 194 182 185 190 185 186 173
319 321 319 319 319 322 322 317 317 318 317 313 307 299 286 267 249 228 207 194 188 182 179 177 182 186 185 184 189 189 183 179 176 181 188 191 192 193 194 200 200 190 173
322 325 324 324 325 326 323 316 316 319 318 315 310 305 293 271 233 206 192 187 184 182 182 182 183 190 189 194 195 198 198 189 185 190 192 189 190 197 197 198 192 182 177
322 327 325 323 328 332 327 317 319 320 317 316 316 313 302 278 232 206 189 185 188 189 189 190 193 193 192 196 202 203 201 198 195 192 189 187 191 196 199 199 193 186 189
319 324 324 326 329 332 331 324 323 322 319 318 320 321 311 290 245 216 199 197 196 196 197 198 200 195 195 197 195 196 196 198 197 184 187 191 194 195 196 195 197 197 199
314 321 324 324 325 328 328 330 330 326 322 323 324 320 312 294 271 243 225 216 218 216 207 204 200 197 207 208 198 189 188 185 181 165 169 180 185 194 196 199 199 197 197
313 317 320 320 323 326 326 331 333 327 323 324 325 323 320 315 298 270 266 249 239 233 230 222 212 216 219 202 203 203 197 188 177 172 184 193 198 202 203 203 204 204 205
Height
1480 1482 1484 1486 1489 1491 1494 1496 1499 1502 1505 1507 1510 1513 1515 1517 1520 1522 1524 1526 1528 1530 1532 1534 1535 1537 1538 1540 1541 1542 1543 1543 1544 1545 1545 1544 1544 1543 1543 1542 1542 1541 1540
1479 1480 1482 1484 1486 1489 1491 1494 1496 1499 1501 1504 1507 1509 1511 1514 1516 1518 1520 1522 1524 1526 1527 1529 1531 1533 1534 1535 1536 1537 1538 1539 1540 1541 1542 1542 1542 1539 1539 1538 1538 1538 1537
1477 1478 1480 1482 1484 1486 1488 1491 1493 1495 1497 1500 1502 1505 1507 1509 1511 1513 1515 1517 1519 1520 1522 1524 1526 1528 1529 1530 1531 1532 1534 1534 1536 1537 1539 1539 1538 1537 1535 1534 1534 1534 1534
1476 1477 1479 1480 1481 1484 1486 1487 1489 1492 1494 1496 1497 1500 1501 1503 1506 1509 1510 1511 1513 1515 1517 1519 1520 1522 1523 1525 1526 1528 1529 1530 1531 1532 1532 1534 1534 1534 1533 1531 1530 1530 1530
1475 1476 1477 1479 1480 1482 1483 1484 1486 1488 1490 1491 1493 1494 1496 1498 1501 1503 1504 1505 1507 1509 1511 1513 1515 1516 1518 1519 1521 1522 1523 1525 1526 1527 1527 1528 1528 1529 1530 1529 1528 1527 1526
1474 1475 1476 1477 1479 1480 1480 1481 1483 1485 1486 1487 1489 1489 1491 1493 1495 1497 1498 1500 1501 1502 1504 1507 1508 1510 1512 1514 1515 1517 1518 1519 1521 1522 1522 1523 1523 1524 1524 1524 1523 1523 1522
1474 1474 1475 1475 1476 1476 1477 1479 1480 1481 1482 1483 1485 1485 1486 1487 1489 1490 1492 1494 1495 1496 1499 1500 1502 1504 1506 1508 1510 1511 1513 1514 1515 1516 1517 1517 1518 1519 1519 1519 1519 1518 1517
1473 1473 1473 1474 1474 1475 1475 1476 1477 1477 1478 1479 1480 1481 1482 1483 1484 1485 1486 1488 1489 1490 1492 1494 1496 1498 1501 1502 1504 1506 1507 1509 1510 1511 1512 1512 1513 1513 1513 1514 1514 1514 1513
1474 1474 1473 1473 1473 1473 1473 1473 1473 1474 1474 1475 1476 1476 1477 1478 1479 1480 1481 1482 1483 1484 1486 1489 1491 1493 1495 1496 1498 1500 1502 1503 1504 1505 1506 1507 1507 1507 1508 1508 1509 1510 1510
1474 1474 1473 1472 1471 1471 1470 1470 1470 1470 1471 1471 1472 1472 1472 1473 1474 1475 1476 1476 1477 1479 1481 1483 1485 1487 1489 1491 1493 1495 1496 1498 1499 1500 1501 1502 1502 1502 1502 1502 1503 1503 1505
1475 1473 1472 1471 1470 1469 1468 1467 1467 1467 1467 1467 1467 1468 1468 1468 1469 1470 1470 1471 1472 1473 1475 1477 1479 1482 1484 1486 1488 1490 1491 1493 1494 1495 1496 1496 1497 1497 1497 1497 1497 1498 1499
1475 1473 1472 1471 1469 1467 1466 1465 1465 1464 1464 1464 1464 1463 1463 1464 1464 1465 1466 1466 1467 1468 1470 1472 1474 1476 1478 1480 1482 1484 1486 1488 1489 1490 1490 1491 1491 1492 1492 1492 1493 1493 1494
1474 1473 1471 1470 1468 1466 1465 1464 1463 1462 1461 1461 1460 1460 1460 1460 1460 1461 1461 1461 1462 1463 1465 1466 1469 1471 1473 1475 1477 1479 1481 1483 1484 1485 1485 1486 1486 1487 1487 1488 1488 1489 1490
1475 1473 1471 1469 1467 1466 1464 1462 1461 1460 1459 1458 1457 1457 1456 1456 1456 1457 1457 1457 1458 1459 1461 1462 1464 1466 1469 1470 1472 1475 1477 1478 1479 1479 1480 1481 1482 1482 1483 1483 1484 1485 1485
1474 1473 1470 1468 1466 1464 1462 1460 1459 1458 1456 1455 1454 1453 1453 1452 1452 1453 1453 1453 1454 1455 1457 1459 1460 1462 1464 1466 1468 1471 1472 1473 1474 1475 1476 1477 1477 1478 1479 1479 1480 1481 1481
1474 1472 1470 1467 1465 1463 1460 1459 1457 1455 1454 1452 1451 1450 1450 1449 1449 1449 1449 1450 1451 1452 1453 1455 1456 1458 1459 1462 1465 1466 1468 1469 1470 1471 1472 1473 1473 1474 1475 1476 1476 1477 1478
1473 1471 1468 1466 1464 1461 1459 1456 1454 1453 1451 1450 1448 1447 1446 1445 1445 1445 1445 1446 1447 1448 1449 1451 1452 1454 1456 1458 1461 1462 1464 1465 1466 1467 1468 1469 1470 1471 1471 1472 1472 1473 1474
1471 1469 1467 1464 1462 1459 1457 1454 1452 1450 1449 1447 1445 1444 1442 1442 1441 1441 1442 1443 1444 1445 1446 1447 1449 1451 1453 1455 1457 1458 1460 1461 1463 1464 1465 1466 1466 1467 1468 1468 1469 1470 1470
1470 1467 1465 1462 1460 1457 1455 1452 1450 1448 1446 1444 1442 1440 1439 1438 1438 1438 1439 1440 1441 1442 1443 1445 1446 1448 1449 1451 1453 1455 1456 1458 1459 1460 1461 1462 1463 1464 1464 1465 1466 1466 1467
1467 1465 1462 1459 1457 1455 1452 1450 1447 1445 1443 1441 1439 1438 1436 1436 1435 1435 1436 1437 1438 1439 1440 1441 1443 1445 1446 1448 1449 1451 1452 1454 1455 1456 1457 1459 1460 1460 1461 1462 1463 1464 1465
1464 1462 1459 1457 1454 1452 1450 1447 1445 1443 1440 1438 1436 1435 1434 1433 1433 1433 1433 1434 1435 1436 1437 1438 1440 1441 1443 1444 1446 1447 1449 1450 1452 1453 1454 1455 1456 1457 1458 1459 1460 1461 1462
1462 1459 1457 1454 1452 1449 1447 1445 1442 1440 1437 1435 1433 1432 1431 1430 1430 1430 1430 1431 1432 1432 1433 1435 1436 1438 1439 1441 1442 1444 1446 1447 1448 1449 1451 1452 1453 1454 1455 1456 1457 1458 1459
1459 1457 1455 1452 1450 1447 1445 1442 1439 1437 1435 1433 1431 1429 1428 1427 1427 1427 1427 1427 1428 1429 1430 1432 1433 1434 1436 1437 1439 1440 1442 1443 1444 1446 1447 1448 1450 1451 1452 1453 1454 1455 1456
1457 1454 1452 1450 1447 1444 1442 1439 1437 1434 1432 1430 1428 1426 1425 1424 1424 1424 1424 1424 1425 1426 1427 1428 1430 1431 1432 1433 1435 1436 1438 1439 1440 1442 1443 1445 1446 1447 1449 1450 1451 1452 1453
1454 1452 1450 1447 1445 1442 1439 1437 1435 1432 1430 1427 1425 1424 1423 1422 1421 1421 1421 1421 1422 1423 1424 1425 1426 1427 1428 1430 1431 1432 1434 1435 1437 1438 1439 1441 1442 1444 1445 1446 1447 1448 1449
1451 1450 1448 1445 1443 1440 1438 1435 1433 1430 1428 1426 1424 1422 1421 1420 1419 1418 1419 1419 1420 1420 1421 1422 1423 1424 1426 1427 1427 1429 1431 1432 1433 1434 1435 1437 1438 1440 1441 1442 1443 1444 1445